Terminal Aerodrome Forecast
Issued by NWS Topeka, KS

Home | Current Version | Previous Version | Graphics & Text | Print | Product List | Glossary On
Versions: 1 2 3 4 5 6 7 8 9 10 11 12 13 14 15 16
000
FTUS43 KTOP 012300
TAFTOP
TAF
KTOP 012320Z 0200/0224 16005KT P6SM SCT150
     FM021600 18013KT P6SM SCT012=

USA.gov is the U.S. government's official web portal to all federal, state and local government web resources and services.